Weather in Chelyadinovo

Russia / Republic of Crimea     45°12′18″N   36°22′29″E
temp.,
°C
wind,
m/s
gust,
m/s
humid.,
%
clouds,
%
prec.,
mm/h
press.,
hPa
HPBL,
m
28 february, sun
sun2800:00+6nnw6992100 1.9 1017518
03:00+5n5988100 2.0 1018602
06:00+4nnw598796 0.0 1018404
09:00+4nnw688398 0.2 1019757
12:00+5nnw7874100 0.3 1020945
15:00+6nw786997 0.4 10201046
18:00+4nnw588057 0.1 1021759
21:00+2nw378648 0.1 1022272
1 march, mon
mon100:00+3nw368198 0.1 1023443
03:00+1nw238577 0.1 102452
06:00+2w239191 0.1 1024144
09:00+3nw358295 0.2 1026496
12:00+4n447972 0.2 1027614
15:00+5nne236985 0.3 1027768
18:00+4nne237488 0.1 1028481
21:00+1nne228689 0.1 102947
2 march, tue
tue200:000nnw23870 0.0 102959
03:000nnw22880 0.0 103040
06:000nw22860 0.0 102933
09:00+3wnw246611 0.0 1030390
12:00+5wnw555842 0.0 10291094
15:00+6wnw575635 0.0 10271142
18:00+5wsw596323 0.0 1026505
21:00+3w7136860 0.0 1025556
3 march, wed
wed300:00+2w5128180 0.0 1024509
03:00+4w6118390 0.0 1024535
06:00+4wnw599097 0.1 1023531
09:00+4nw587991 0.1 1024590
12:00+6wnw687649 0.0 1025679
15:00+7nw696664 0.2 10241219
18:00+6nnw576370 0.1 10251257
21:00+4wnw347054 0.1 102778
4 march, thu
thu400:00+3nw34760 0.0 102858
03:00+2nw22780 0.0 102827
06:00+1nw11750 0.0 102825
09:00+5sw12580 0.0 1028123
12:00+8ssw33460 0.0 10271222
15:00+9ssw56540 0.0 10261252
18:00+6ssw586613 0.0 1024659
21:00+5ssw511779 0.0 1023387